Regional Weather Roundup
Issued by NWS Sterling, VA

Home | Current Version | Previous Version | Text Only | Print | Product List | Glossary Off
Versions: 1 2 3 4 5 6 7 8 9 10 11 12 13 14 15 16 17 18 19 20 21 22 23 24 25 26 27 28

000
ASUS41 KLWX 280511
RWRLWX

REGIONAL WEATHER ROUNDUP
NATIONAL WEATHER SERVICE BALTIMORE MD/WASHINGTON DC
100 AM EDT WED SEP 28 2016

Note: "FAIR" indicates few or no clouds below 12,000 feet
with no significant weather and/or obstructions to visibility.
 TC=TEMPERATURE CELSIUS

 * =Non NWS site. Station does not report precipitation (e.g. rain,
    snow, etc.), thunder, or fog.

DCZ001-MDZ009-015-VAZ040>042-051-053>054-280600-
WASHINGTON METRO

CITY           SKY/WX    TMP DP  RH WIND       PRES   REMARKS
WASHINGTON NAT PTCLDY    66  64  93 CALM      29.96R
DULLES         FOG       63  62  97 CALM      29.95S VSB 3/4
ANDREWS AFB    CLEAR     59  58  96 E2        29.95R
FT BELVOIR     CLEAR     59  58  96 CALM      29.95S
QUANTICO       CLOUDY    66  63  90 CALM      29.95F
COLLEGE PARK*  CLEAR     57  55  94 CALM      29.96R
LEESBURG*      MOCLDY    59  59 100 CALM      29.97R
MANASSAS*      CLOUDY    61  61 100 CALM      29.95S
GAITHERSBURG*  CLOUDY    61  55  82 SE3       30.00S

$$

MDZ006>007-011-014-280600-
BALTIMORE METRO

CITY           SKY/WX    TMP DP  RH WIND       PRES   REMARKS
BWI AIRPORT    PTCLDY    57  56  96 CALM      29.96R
MD SCIENCE CTR   N/A     66  60  81 MISG      29.96S
ANNAPOLIS      CLEAR     64  63  96 CALM      29.96R FOG
FORT MEADE*    CLEAR     54  52  94 CALM      29.99R

$$

MDZ012-015-019>023-280600-
MARYLAND EASTERN SHORE

CITY           SKY/WX    TMP DP  RH WIND       PRES   REMARKS
OCEAN CITY     CLOUDY    69  67  93 CALM      29.94F
SALISBURY      MOCLDY    66  65  96 CALM      29.94F
BAY BRIDGE AP* CLEAR     61  61 100 MISG      29.96S FOG
CAMBRIDGE*     CLOUDY    61  61 100 CALM      29.96R

$$

MDZ017>025-280600-
SOUTHERN MARYLAND

CITY           SKY/WX    TMP DP  RH WIND       PRES   REMARKS
PATUXENT RIVER CLOUDY    67  65  93 N3        29.95R
ST INIGOES     CLOUDY    68  67  96 NE3       29.94R
LEONARDTOWN*   CLOUDY    64  63  94 CALM      29.97R

$$

MDZ003>005-280600-
NORTH CENTRAL MARYLAND

CITY           SKY/WX    TMP DP  RH WIND       PRES   REMARKS
FREDERICK*     NOT AVBL
HAGERSTOWN APT CLEAR     61  53  75 E6        29.96R

$$

MDZ501>502-280600-
WESTERN MARYLAND

CITY           SKY/WX    TMP DP  RH WIND       PRES   REMARKS
OAKLAND*       CLEAR     52  37  58 SE3       30.00S
CUMBERLAND*    CLEAR     54  45  71 N5        30.00S

$$

VAZ025>031-280600-
SHENANDOAH VALLEY

CITY           SKY/WX    TMP DP  RH WIND       PRES   REMARKS
WINCHESTER*    CLEAR     55  55 100 CALM      29.95R
FRONT ROYAL*   FAIR      57  57 100 CALM      29.93S
LURAY*         FAIR     N/A N/A N/A CALM      29.95S
NEW MARKET*    MOCLDY   N/A N/A N/A CALM      29.95S
STAUNTON*      CLOUDY    58  51  78 CALM      29.97S
WAYNESBORO*    CLOUDY    64  62  95 CALM      29.96R

$$

WVZ021-048>050-054>055-280600-
EASTERN WEST VIRGINIA PANHANDLE

CITY           SKY/WX    TMP DP  RH WIND       PRES   REMARKS
MARTINSBURG    PTCLDY    55  53  93 CALM      29.94S
PETERSBURG*    CLEAR     48  45  88 CALM      29.98R

$$

VAZ036>039-050-280600-
CENTRAL FOOTHILLS

CITY           SKY/WX    TMP DP  RH WIND       PRES   REMARKS
CHARLOTTESVILL CLOUDY    68  64  87 NE6       29.94R
CULPEPER*      CLOUDY    62  62  99 CALM      29.96S
ORANGE*          N/A     64  64 100 CALM      29.96S FOG
GORDONSVILLE*  NOT AVBL
WARRENTON*     CLOUDY    61  57  86 CALM      29.94S

$$

VAZ055>057-280600-
NORTH AND CENTRAL PIEDMONT

CITY           SKY/WX    TMP DP  RH WIND       PRES   REMARKS
FREDERICKSBRG* CLOUDY    66  66 100 CALM      29.94S
STAFFORD*      MOCLDY    60  60 100 CALM      29.99R FOG

$$

NCZ024-NYZ072-PAZ021-071-VAZ022-071-280600-
OTHER REGIONAL OBSERVATIONS

CITY           SKY/WX    TMP DP  RH WIND       PRES   REMARKS
NEW YORK CITY  CLEAR     65  59  81 CALM      30.01R
PHILADELPHIA   PTCLDY    63  59  87 CALM      29.98R
PITTSBURGH     PTCLDY    54  43  66 CALM      29.91F
ROANOKE        CLOUDY    66  62  87 CALM      29.96R
RICHMOND       FOG       67  67 100 E3        29.93R VSB 3/4
RALEIGH        CLOUDY    71  69  93 CALM      29.91F

$$

ANZ530>537-280600-
MARINE OBSERVATIONS

STATION/POSITION TIME  TEMP    WIND        PRES
                       AIR SEA DIR/SP/G
                 (UTC) (F)     (DEG/KT/KT) (MB)
THOMAS PT LIGHT  0500   68 74  130/  6/  7 1015.8R
BALT KEY BRIDGE  0448   68      CALM  /  1 1014.4R
COVE POINT       0448   68      70/  5/  5 1014.6R
LEWISETTA        0448   70 74   CALM  /  1 1013.3R
SOLOMONS ISLAND  0448   69 76  360/  3/  3   N/A
PINEY POINT      0448           60/  4/  5   N/A

$$





USA.gov is the U.S. government's official web portal to all federal, state and local government web resources and services.